[[{"header":{"parameterUnit":"m.s-1","parameterCategory":1,"la1":30.2991,"la2":30.254,"lo1":-89.0895,"lo2":-89.0444,"dy":0.0017,"dx":0.0017,"nx":28,"ny":28,"refTime":"2023-09-11T21:00:00:Z","depth":0,"parameterNumber":2,"parameterNumberName":"U-component_of_WINDS"},"data":[0,0,0,0,0,0,0,0,0,0,0,0,0,0,0,0,0,0,0,0,0,0,0,0,0,0,0,0,0,0,0,0,0,0,0,0,0,0,0,0,0,0,0,0,0,0,0,0,0,0,0,0,0,0,0,0,0,0,1.7232,1.7232,0,1.7255,1.7256,1.7256,1.7219,1.7218,1.7217,1.7215,1.7242,1.7243,1.7245,0,0,0,0,0,0,0,0,0,0,0,0,0,1.7158,1.7159,1.7232,1.7232,1.7233,1.7255,1.7256,1.7256,1.7219,1.7218,1.7216,1.7215,1.7241,1.7243,1.7245,0,0,0,0,0,0,0,0,0,0,0,0,0,1.7187,1.716,1.7232,1.7217,1.7216,1.7255,1.7256,1.7256,1.722,1.7218,1.7216,1.7214,1.724,1.7243,1.7246,1.7302,0,0,1.7254,1.7256,0,0,0,0,0,0,0,0,1.7185,1.7189,1.7219,1.7218,1.7217,1.7232,1.7239,1.7271,1.722,1.7218,1.7215,1.7213,1.724,1.7243,1.7252,1.7303,1.7304,1.7255,1.7256,1.7258,1.7258,0,0,0,0,0,0,0,1.7183,1.7188,1.7241,1.7219,1.7218,1.721,1.7212,1.7245,1.724,1.7218,1.7216,1.7219,1.7239,1.7249,1.7252,1.7304,1.7255,1.7257,1.7259,1.726,1.7403,1.7405,0,0,0,0,0,0,1.7183,1.7187,1.7241,1.7242,1.7196,1.7213,1.7215,1.7229,1.7239,1.7239,1.722,1.7217,1.7245,1.7249,1.7253,1.7319,1.7258,1.726,1.7262,1.7401,1.7403,1.7406,0,0,0,0,0,0,1.7181,1.7188,1.724,1.7214,1.722,1.7216,1.7233,1.7231,1.724,1.7241,1.724,1.7231,1.7244,1.7249,1.729,1.7319,1.7262,1.7264,1.7398,1.7402,1.7405,1.7452,0,0,0,0,0,0,1.7179,1.7187,1.7208,1.7214,1.7221,1.7276,1.7234,1.7233,1.7245,1.7241,1.7251,1.7251,1.7243,1.7286,1.7292,1.7322,1.7266,1.7396,1.74,1.7404,1.7448,1.7456,1.7463,0,0,0,0,0,1.7177,1.7221,1.7209,1.7216,1.7247,1.7277,1.7281,1.7271,1.7248,1.7269,1.7269,1.725,1.7315,1.729,1.7297,1.7329,1.7394,1.7399,1.7403,1.7444,1.7454,1.7463,0,0,0,0,0,0,1.7219,1.7222,1.7209,1.7256,1.7267,1.7271,1.7297,1.7282,1.73,1.7296,1.7282,1.7285,1.7329,1.7333,1.7305,1.7383,1.7351,1.7357,1.7379,1.7389,1.7397,1.7395,1.7269,0,0,0,0,0,1.7234,1.7258,1.7259,1.7301,1.7307,1.7301,1.7314,1.7305,1.7316,1.732,1.7324,1.7335,1.7358,1.7374,1.7395,1.7448,1.745,1.7473,1.7481,1.7487,1.7493,1.7522,1.7532,1.7421,1.7421,1.7421,0,0,1.7265,1.7269,1.7285,1.7309,1.7316,1.7342,1.7305,1.7334,1.7353,1.7325,1.7363,1.7366,1.7379,1.7426,1.7447,1.7431,1.7524,1.7493,1.7499,1.7501,1.7528,1.7538,1.7548,1.7424,1.7424,1.7423,0,0,1.7334,1.734,1.7375,1.7383,1.7394,1.739,1.7399,1.7406,1.7406,1.7445,1.7424,1.7447,1.7487,1.7496,1.7506,1.758,1.7563,1.7587,1.7629,1.7657,1.7666,1.7674,1.77,1.771,1.7593,1.7593,1.7593,0,1.7372,1.7409,1.7396,1.7426,1.7438,1.7412,1.7448,1.7457,1.7475,1.7484,1.7465,1.7514,1.7521,1.757,1.7588,1.7597,1.7607,1.7586,1.7665,1.7673,1.768,1.7705,1.7715,1.7596,1.7596,1.7595,1.7595,0,1.7455,1.7481,1.7508,1.7525,1.754,1.7573,1.7566,1.7582,1.7572,1.757,1.761,1.7617,1.7639,1.765,1.764,1.7698,1.7687,1.7667,1.7634,1.7694,1.7717,1.7727,1.76,1.7599,1.7598,1.7597,0,0,1.7552,1.7561,1.7571,1.7579,1.7589,1.761,1.7642,1.7663,1.7677,1.7691,1.7718,1.7752,1.7733,1.7745,1.7736,1.7761,1.7819,1.7738,1.7738,1.7753,1.7884,1.7899,1.791,1.7808,1.781,1.7811,1.7883,0,1.7622,1.7676,1.7666,1.772,1.7744,1.772,1.7748,1.7758,1.7758,1.7779,1.7778,1.7803,1.7776,1.7783,1.7806,1.7807,1.7845,1.7802,1.7834,1.7835,1.7832,1.7922,1.7939,1.8006,1.7892,1.7893,1.7894,0,1.771,1.7726,1.7782,1.7789,1.7799,1.7824,1.7842,1.7863,1.7874,1.7871,1.7884,1.7871,1.7904,1.787,1.7915,1.7886,1.7898,1.7901,1.7903,1.7906,1.7869,1.7928,1.8027,1.8038,1.7909,1.7907,1.7906,0,1.7776,1.7812,1.785,1.7857,1.7865,1.7884,1.7888,1.7897,1.791,1.7927,1.7935,1.7956,1.7967,1.7983,1.7976,1.7952,1.8023,1.7989,1.8023,1.8023,1.8039,1.8038,1.8142,1.8047,1.8047,1.8046,1.8046,0,1.7855,1.7891,1.7879,1.7903,1.7942,1.793,1.7969,1.7971,1.7979,1.8003,1.7984,1.8007,1.7996,1.8018,1.8013,1.8052,1.8057,1.8056,1.8055,1.8059,1.8059,1.8067,1.8062,1.8049,1.8048,1.8048,1.8047,0,1.7936,1.793,1.797,1.7974,1.7976,1.8005,1.8009,1.8031,1.8029,1.806,1.8066,1.8063,1.8089,1.8083,1.8111,1.8107,1.8156,1.8148,1.8152,1.8151,1.8186,1.8183,1.8298,1.8313,1.8208,1.8209,1.821,0,1.7987,1.8014,1.8021,1.8035,1.8041,1.8064,1.8078,1.8066,1.8081,1.8095,1.8116,1.814,1.8158,1.8201,1.8201,1.8223,1.8216,1.8255,1.8219,1.8222,1.8217,1.8216,1.8218,1.8262,1.8263,1.8264,1.8265,0,1.8079,1.8074,1.8094,1.8113,1.8129,1.8143,1.8156,1.8169,1.8158,1.8176,1.8202,1.8216,1.8244,1.8268,1.8288,1.8294,1.8278,1.8276,1.8285,1.829,1.8291,1.8291,1.8172,1.8274,1.8273,1.8272,1.8272,1.8271,1.8147,1.8169,1.8178,1.82,1.8208,1.8221,1.8242,1.8242,1.8263,1.8284,1.8277,1.8306,1.8316,1.8341,1.8349,1.8372,1.8358,1.8371,1.8374,1.8378,1.8382,1.8287,1.8376,1.8376,1.8375,1.8375,1.8375,0,1.8238,1.8242,1.8263,1.8281,1.8299,1.8281,1.8294,1.8311,1.8336,1.8347,1.8365,1.8395,1.8418,1.842,1.8442,1.8461,1.8454,1.8467,1.8466,1.8467,1.8394,1.8384,1.8472,1.8472,1.8472,1.8472,1.8472,1.8472,1.8287,1.8325,1.8321,1.8363,1.8367,1.8395,1.8404,1.8415,1.8424,1.8457,1.8476,1.8477,1.8485,1.8507,1.8528,1.8528,1.8537,1.8553,1.855,1.8482,1.8472,1.8463,1.8454,1.8555,1.8555,1.8622,1.8622,1.8623]},{"header":{"parameterUnit":"m.s-1","parameterCategory":1,"la1":30.2991,"la2":30.254,"lo1":-89.0895,"lo2":-89.0444,"dy":0.0017,"dx":0.0017,"nx":28,"ny":28,"refTime":"2023-09-11T21:00:00:Z","depth":0,"parameterNumber":3,"parameterNumberName":"V-component_of_WINDS"},"data":[0,0,0,0,0,0,0,0,0,0,0,0,0,0,0,0,0,0,0,0,0,0,0,0,0,0,0,0,0,0,0,0,0,0,0,0,0,0,0,0,0,0,0,0,0,0,0,0,0,0,0,0,0,0,0,0,0,0,0.0402,0.0402,0,0.0433,0.0433,0.0433,0.0441,0.0441,0.0441,0.0441,0.0471,0.0472,0.0473,0,0,0,0,0,0,0,0,0,0,0,0,0,0.0349,0.035,0.0402,0.0403,0.0403,0.0433,0.0433,0.0433,0.0441,0.0441,0.0441,0.0441,0.047,0.0472,0.0473,0,0,0,0,0,0,0,0,0,0,0,0,0,0.0375,0.035,0.0402,0.041,0.0412,0.0432,0.0433,0.0434,0.0441,0.0441,0.0441,0.0441,0.047,0.0471,0.0473,0.0487,0,0,0.0477,0.0478,0,0,0,0,0,0,0,0,0.0373,0.0377,0.0409,0.041,0.0411,0.0433,0.0425,0.0451,0.0441,0.043,0.0441,0.044,0.0458,0.0461,0.0467,0.0489,0.049,0.0477,0.0478,0.0479,0.0479,0,0,0,0,0,0,0,0.0372,0.0376,0.0414,0.0409,0.0411,0.0412,0.0415,0.043,0.0445,0.0431,0.0432,0.0435,0.0459,0.0466,0.0468,0.049,0.0477,0.0479,0.048,0.048,0.0524,0.0524,0,0,0,0,0,0,0.0369,0.0374,0.0413,0.0415,0.0391,0.0413,0.0417,0.0426,0.0445,0.0448,0.0435,0.0435,0.0463,0.0466,0.0469,0.0486,0.0479,0.048,0.0481,0.0524,0.0524,0.0524,0,0,0,0,0,0,0.0367,0.0372,0.0412,0.0395,0.04,0.0414,0.0425,0.0427,0.0434,0.0448,0.0451,0.044,0.0463,0.0467,0.0482,0.0487,0.0481,0.0482,0.0523,0.0524,0.0524,0.0521,0,0,0,0,0,0,0.0366,0.0372,0.0378,0.0395,0.0401,0.0426,0.0425,0.0428,0.0436,0.0437,0.0453,0.0456,0.0463,0.048,0.0484,0.0489,0.0483,0.0523,0.0524,0.0524,0.0521,0.0522,0.0522,0,0,0,0,0,0.0364,0.0376,0.0378,0.0383,0.0409,0.0426,0.0429,0.0438,0.0437,0.0443,0.0452,0.0455,0.0486,0.0482,0.0486,0.0492,0.0523,0.0523,0.0524,0.0521,0.0521,0.0522,0,0,0,0,0,0,0.0358,0.0378,0.0381,0.0399,0.0411,0.0427,0.0435,0.0439,0.0451,0.0451,0.0461,0.0465,0.0479,0.0487,0.0482,0.0506,0.0504,0.0506,0.05,0.0501,0.0502,0.0499,0.0485,0,0,0,0,0,0.0359,0.0372,0.0388,0.0402,0.0408,0.0421,0.0428,0.0434,0.0447,0.0452,0.0462,0.0474,0.0486,0.0494,0.0507,0.0522,0.0525,0.0528,0.0529,0.0529,0.053,0.0538,0.0539,0.0527,0.0527,0.0527,0,0,0.0361,0.0374,0.0381,0.0401,0.0411,0.0424,0.0425,0.0438,0.0447,0.0454,0.0469,0.0477,0.0491,0.0506,0.0513,0.0513,0.0534,0.053,0.053,0.0531,0.0539,0.054,0.0541,0.0527,0.0527,0.0527,0,0,0.0371,0.0382,0.0394,0.0404,0.0419,0.0427,0.043,0.0446,0.0452,0.0467,0.0472,0.0483,0.0504,0.0513,0.0521,0.0533,0.0536,0.0537,0.0539,0.0547,0.0548,0.0549,0.0552,0.0554,0.0538,0.0538,0.0538,0,0.0371,0.039,0.04,0.0413,0.0421,0.0428,0.044,0.0449,0.0467,0.0472,0.0472,0.0498,0.0508,0.0525,0.0528,0.0534,0.0537,0.0535,0.0547,0.0548,0.0549,0.0552,0.0554,0.0538,0.0538,0.0538,0.0538,0,0.039,0.0403,0.0411,0.0428,0.0438,0.045,0.0461,0.0469,0.0474,0.0481,0.0497,0.0508,0.0523,0.0527,0.0532,0.0545,0.0544,0.0545,0.0544,0.055,0.0553,0.0555,0.0538,0.0538,0.0538,0.0538,0,0,0.0397,0.0419,0.0422,0.0429,0.0446,0.0456,0.0468,0.0483,0.0489,0.0501,0.0511,0.0528,0.0529,0.0538,0.0543,0.055,0.0558,0.055,0.0551,0.0551,0.0572,0.0571,0.0572,0.056,0.056,0.056,0.057,0,0.0408,0.0431,0.0439,0.0457,0.0469,0.0475,0.0486,0.0497,0.0504,0.0514,0.0522,0.0534,0.0535,0.054,0.0547,0.0555,0.0562,0.0555,0.0569,0.0569,0.0565,0.0574,0.0573,0.0582,0.0572,0.0572,0.0572,0,0.0424,0.0436,0.0456,0.047,0.0475,0.0485,0.0498,0.0508,0.052,0.0525,0.0534,0.0539,0.0552,0.0549,0.0566,0.0561,0.0567,0.0572,0.0572,0.0573,0.0571,0.0575,0.0585,0.0586,0.0575,0.0574,0.0574,0,0.0427,0.0448,0.0462,0.0468,0.0486,0.0492,0.05,0.0512,0.0519,0.0531,0.0536,0.0548,0.0555,0.0564,0.0572,0.057,0.0587,0.0586,0.0591,0.0591,0.0594,0.0594,0.0605,0.0599,0.0599,0.0599,0.0599,0,0.0438,0.0449,0.0463,0.0472,0.0484,0.0494,0.0506,0.0514,0.0524,0.0534,0.054,0.0549,0.0559,0.0569,0.0575,0.0587,0.059,0.0594,0.0595,0.0593,0.0593,0.0597,0.0597,0.0599,0.0599,0.0599,0.0599,0,0.0443,0.0453,0.0468,0.0483,0.0487,0.0496,0.0509,0.0517,0.0524,0.0536,0.054,0.0551,0.0563,0.0572,0.0588,0.0592,0.0604,0.0606,0.06,0.0601,0.0605,0.0605,0.0619,0.0621,0.0614,0.0614,0.0614,0,0.0449,0.0458,0.0474,0.0481,0.0488,0.05,0.0508,0.0517,0.0525,0.0539,0.0545,0.0557,0.0568,0.0586,0.0596,0.0607,0.0609,0.0613,0.0611,0.0608,0.0609,0.0608,0.0608,0.0614,0.0614,0.0614,0.0614,0,0.0459,0.0463,0.0475,0.0487,0.0497,0.0507,0.0518,0.0523,0.0534,0.0542,0.0555,0.0563,0.0578,0.059,0.0603,0.061,0.0613,0.0615,0.0616,0.0614,0.061,0.0612,0.0601,0.0614,0.0614,0.0614,0.0614,0.0614,0.0464,0.0472,0.0484,0.0497,0.0506,0.0515,0.0523,0.0532,0.0542,0.0556,0.0561,0.0573,0.0584,0.0602,0.0609,0.0618,0.0618,0.0621,0.0621,0.0622,0.0621,0.0609,0.062,0.062,0.062,0.062,0.062,0,0.0474,0.0482,0.0493,0.0508,0.0517,0.052,0.0532,0.0539,0.055,0.0561,0.0571,0.0584,0.0596,0.0606,0.0618,0.0623,0.0625,0.0626,0.0625,0.0627,0.0621,0.0618,0.0624,0.0624,0.0624,0.0624,0.0624,0.0624,0.048,0.0493,0.0499,0.0516,0.0524,0.0537,0.0543,0.0552,0.056,0.0575,0.0585,0.0591,0.0601,0.0614,0.0624,0.0627,0.0631,0.0631,0.0634,0.0628,0.0627,0.0627,0.0624,0.0632,0.0632,0.0639,0.0639,0.0639]}]]